User: anonymous
Location: Cluny
(50.9333°N, 112.8167°W)
Time: 09:51:59
(UTC-06:00)
Language:

Cosmos 1743 Rocket - Orbit

View from above orbital plane
View from above orbital plane
View from above satellite
View from above satellite

Ground track
Ground track

The orbit data is extracted from the following two-line orbital elements,

1 16720U 86034B   14272.49527056  .00000633  00000-0  75025-4 0  5712
2 16720 082.5518 085.8363 0021807 130.7683 255.1008 14.82800947532279
Epoch (UTC): 29 September 2014 11:53:11
Eccentricity: 0.0021807
inclination: 82.5518°
perigee height: 605 km
apogee height: 636 km
right ascension of ascending node: 85.8363°
argument of perigee: 130.7683°
revolutions per day: 14.82800947
mean anomaly at epoch: 255.1008°
orbit number at epoch: 53227

The dashed part of the orbit path shows where the satellite is in the earth's shadow,  

DLR